| time (UTC) | temp F | wind direction | speed MPH | gust MPH | rain 1hr in | rain 24hr in | rain mn in | humidity % | barometer mb |
| 20260504183943 | 56 | 292 | 9.0 | 14.0 | 0.03 | 0.46 | 0.39 | 93 | 1013.2 |
| 20260504183900 | 56 | 292 | 8.0 | 11.0 | 0.03 | 0.46 | 0.39 | 93 | 1013.1 |
| 20260504183121 | 57 | 263 | 4.0 | 9.0 | 0.02 | 0.46 | 0.39 | 94 | 1013.2 |
| 20260504182946 | 57 | 255 | 6.0 | 9.0 | 0.02 | 0.46 | 0.39 | 94 | 1013.2 |
| 20260504182845 | 57 | 261 | 6.0 | 9.0 | 0.02 | 0.46 | 0.39 | 94 | 1013.0 |
| 20260504182800 | 57 | 269 | 6.0 | 9.0 | 0.02 | 0.46 | 0.39 | 94 | 1013.2 |
| 20260504182617 | 57 | 275 | 6.0 | 9.0 | 0.02 | 0.46 | 0.39 | 94 | 1013.1 |
| 20260504182447 | 57 | 275 | 4.0 | 10.0 | 0.03 | 0.46 | 0.39 | 94 | 1013.1 |
| 20260504182421 | 57 | 290 | 4.0 | 10.0 | 0.03 | 0.46 | 0.39 | 94 | 1013.1 |
| 20260504182304 | 57 | 301 | 3.0 | 11.0 | 0.03 | 0.46 | 0.39 | 94 | 1013.2 |
| 20260504181836 | 57 | 273 | 6.0 | 11.0 | 0.03 | 0.46 | 0.39 | 94 | 1013.1 |
| 20260504181801 | 57 | 277 | 6.0 | 11.0 | 0.02 | 0.46 | 0.39 | 94 | 1013.2 |
| 20260504181618 | 56 | 288 | 8.0 | 11.0 | 0.02 | 0.46 | 0.38 | 94 | 1013.2 |
| 20260504181425 | 56 | 290 | 7.0 | 11.0 | 0.02 | 0.46 | 0.38 | 94 | 1013.2 |
| 20260504181354 | 56 | 276 | 7.0 | 10.0 | 0.02 | 0.46 | 0.38 | 94 | 1013.2 |
| 20260504181232 | 57 | 292 | 4.0 | 10.0 | 0.02 | 0.46 | 0.38 | 94 | 1013.2 |
| 20260504181034 | 57 | 265 | 5.0 | 9.0 | 0.02 | 0.46 | 0.38 | 94 | 1013.3 |
| 20260504180914 | 57 | 265 | 5.0 | 11.0 | 0.02 | 0.46 | 0.38 | 94 | 1013.3 |
| 20260504180843 | 57 | 269 | 5.0 | 11.0 | 0.02 | 0.46 | 0.38 | 94 | 1013.3 |
| 20260504180705 | 57 | 234 | 6.0 | 11.0 | 0.02 | 0.46 | 0.38 | 94 | 1013.2 |
| 20260504175846 | 57 | 253 | 5.0 | 10.0 | 0.02 | 0.46 | 0.37 | 94 | 1013.1 |
| 20260504175654 | 57 | 242 | 4.0 | 10.0 | 0.02 | 0.46 | 0.37 | 94 | 1013.1 |
| 20260504175320 | 57 | 244 | 3.0 | 10.0 | 0.02 | 0.46 | 0.37 | 94 | 1013.2 |
| 20260504175202 | 57 | 269 | 3.0 | 10.0 | 0.02 | 0.46 | 0.37 | 94 | 1013.2 |
| 20260504175021 | 57 | 238 | 3.0 | 10.0 | 0.02 | 0.46 | 0.37 | 94 | 1013.2 |
| 20260504174903 | 57 | 266 | 2.0 | 8.0 | 0.02 | 0.46 | 0.37 | 94 | 1013.2 |
| 20260504174838 | 57 | 237 | 3.0 | 9.0 | 0.02 | 0.46 | 0.37 | 94 | 1013.2 |
| 20260504174649 | 57 | 254 | 4.0 | 9.0 | 0.02 | 0.46 | 0.37 | 94 | 1013.2 |
| 20260504174225 | 57 | 236 | 4.0 | 9.0 | 0.02 | 0.45 | 0.37 | 94 | 1013.1 |
| 20260504174051 | 57 | 236 | 6.0 | 9.0 | 0.02 | 0.45 | 0.36 | 94 | 1013.1 |
| 20260504173929 | 57 | 268 | 5.0 | 9.0 | 0.02 | 0.45 | 0.36 | 94 | 1013.1 |
| 20260504173902 | 57 | 253 | 4.0 | 8.0 | 0.02 | 0.45 | 0.36 | 94 | 1013.2 |
| 20260504173710 | 57 | 275 | 3.0 | 10.0 | 0.02 | 0.46 | 0.36 | 93 | 1013.1 |
| 20260504173407 | 57 | 244 | 2.0 | 10.0 | 0.02 | 0.46 | 0.36 | 93 | 1013.2 |
| 20260504173256 | 57 | 235 | 3.0 | 10.0 | 0.02 | 0.46 | 0.36 | 93 | 1013.2 |
| 20260504172728 | 57 | 265 | 5.0 | 13.0 | 0.03 | 0.46 | 0.36 | 93 | 1013.0 |
| 20260504172329 | 57 | 240 | 3.0 | 13.0 | 0.02 | 0.45 | 0.36 | 93 | 1013.1 |
| 20260504172211 | 57 | 231 | 3.0 | 13.0 | 0.02 | 0.45 | 0.35 | 93 | 1013.1 |
| 20260504172021 | 57 | 248 | 6.0 | 13.0 | 0.02 | 0.45 | 0.35 | 93 | 1013.0 |
| 20260504171903 | 57 | 233 | 8.0 | 13.0 | 0.02 | 0.45 | 0.35 | 93 | 1013.0 |
| 20260504171837 | 57 | 263 | 4.0 | 13.0 | 0.02 | 0.45 | 0.35 | 93 | 1013.1 |
| 20260504171641 | 57 | 246 | 3.0 | 12.0 | 0.02 | 0.45 | 0.35 | 93 | 1013.0 |
| 20260504171511 | 57 | 221 | 7.0 | 12.0 | 0.02 | 0.45 | 0.35 | 93 | 1013.0 |
| 20260504171437 | 57 | 241 | 7.0 | 12.0 | 0.02 | 0.45 | 0.35 | 93 | 1013.0 |
| 20260504171314 | 57 | 261 | 4.0 | 12.0 | 0.02 | 0.46 | 0.35 | 93 | 1013.0 |
| 20260504170905 | 57 | 268 | 4.0 | 12.0 | 0.02 | 0.46 | 0.35 | 93 | 1012.9 |
| 20260504170721 | 57 | 236 | 6.0 | 14.0 | 0.02 | 0.46 | 0.35 | 93 | 1012.7 |
| 20260504170431 | 57 | 289 | 6.0 | 14.0 | 0.02 | 0.45 | 0.35 | 93 | 1012.7 |
| 20260504170313 | 57 | 282 | 6.0 | 14.0 | 0.02 | 0.45 | 0.35 | 93 | 1012.7 |
| 20260504151011 | 58 | 267 | 11.0 | 18.0 | 0.03 | 0.44 | 0.31 | 91 | 1012.6 |
| 20260504150833 | 58 | 252 | 11.0 | 18.0 | 0.03 | 0.44 | 0.31 | 91 | 1012.5 |
| 20260504150829 | 58 | 252 | 11.0 | 18.0 | 0.03 | 0.44 | 0.31 | 91 | 1012.5 |
| 20260504150637 | 58 | 306 | 11.0 | 18.0 | 0.02 | 0.43 | 0.30 | 91 | 1012.5 |
| 20260504150204 | 58 | 309 | 12.0 | 17.0 | 0.02 | 0.43 | 0.30 | 90 | 1012.6 |
| 20260504141211 | 59 | 267 | 10.0 | 18.0 | 0.02 | 0.43 | 0.28 | 92 | 1012.4 |
| 20260504141044 | 59 | 295 | 11.0 | 18.0 | 0.02 | 0.43 | 0.28 | 93 | 1012.4 |
| 20260504140903 | 59 | 292 | 11.0 | 18.0 | 0.02 | 0.43 | 0.28 | 92 | 1012.4 |
| 20260504140743 | 59 | 272 | 10.0 | 16.0 | 0.02 | 0.43 | 0.28 | 93 | 1012.4 |
| 20260504140710 | 59 | 295 | 10.0 | 16.0 | 0.03 | 0.43 | 0.28 | 93 | 1012.5 |
| 20260504140525 | 59 | 295 | 9.0 | 16.0 | 0.03 | 0.43 | 0.28 | 93 | 1012.5 |
| 20260504140336 | 59 | 294 | 10.0 | 16.0 | 0.03 | 0.43 | 0.28 | 93 | 1012.4 |
| 20260504140303 | 59 | 305 | 11.0 | 16.0 | 0.03 | 0.43 | 0.28 | 93 | 1012.3 |
| 20260504130642 | 58 | 298 | 4.0 | 9.0 | 0.02 | 0.41 | 0.25 | 97 | 1012.3 |
| 20260504130612 | 58 | 274 | 4.0 | 10.0 | 0.02 | 0.40 | 0.25 | 97 | 1012.3 |
| 20260504130443 | 58 | 294 | 4.0 | 10.0 | 0.02 | 0.40 | 0.24 | 97 | 1012.4 |
| 20260504130327 | 58 | 282 | 6.0 | 11.0 | 0.02 | 0.40 | 0.24 | 97 | 1012.4 |
| 20260504120317 | 61 | 150 | 1.0 | 6.0 | 0.02 | 0.40 | 0.24 | 95 | 1011.9 |
| 20260504120145 | 61 | 184 | 2.0 | 7.0 | 0.02 | 0.39 | 0.24 | 95 | 1011.9 |
| 20260504110715 | 61 | 172 | 0.0 | 3.0 | 0.02 | 0.40 | 0.22 | 95 | 1012.0 |
| 20260504110645 | 61 | 172 | 0.0 | 3.0 | 0.02 | 0.40 | 0.22 | 95 | 1012.0 |
| 20260504110535 | 61 | 173 | 0.0 | 3.0 | 0.02 | 0.40 | 0.22 | 95 | 1012.0 |
| 20260504110444 | 61 | 198 | 1.0 | 3.0 | 0.02 | 0.39 | 0.22 | 95 | 1012.1 |
| 20260504110408 | 61 | 198 | 1.0 | 3.0 | 0.02 | 0.39 | 0.21 | 95 | 1012.1 |
| 20260504100559 | 61 | 277 | 4.0 | 9.0 | 0.02 | 0.39 | 0.20 | 94 | 1011.9 |
| 20260504100505 | 61 | 243 | 4.0 | 7.0 | 0.02 | 0.39 | 0.20 | 94 | 1011.8 |
| 20260504100358 | 61 | 274 | 4.0 | 7.0 | 0.02 | 0.39 | 0.20 | 94 | 1011.9 |
| 20260504100216 | 61 | 238 | 2.0 | 7.0 | 0.02 | 0.39 | 0.20 | 94 | 1011.8 |
| 20260504090111 | 61 | 261 | 5.0 | 9.0 | 0.02 | 0.38 | 0.18 | 93 | 1011.9 |
| 20260504081903 | 60 | 212 | 3.0 | 6.0 | 0.02 | 0.38 | 0.17 | 97 | 1012.2 |
| 20260504081456 | 59 | 220 | 4.0 | 6.0 | 0.02 | 0.38 | 0.17 | 97 | 1012.1 |
| 20260504081314 | 60 | 235 | 2.0 | 6.0 | 0.02 | 0.38 | 0.17 | 98 | 1012.1 |
| 20260504081140 | 59 | 223 | 2.0 | 4.0 | 0.02 | 0.38 | 0.17 | 98 | 1012.1 |
| 20260504081106 | 59 | 223 | 2.0 | 4.0 | 0.02 | 0.38 | 0.17 | 98 | 1012.1 |
| 20260504080935 | 59 | 194 | 2.0 | 4.0 | 0.02 | 0.38 | 0.17 | 98 | 1012.1 |
| 20260504080745 | 59 | 242 | 2.0 | 4.0 | 0.02 | 0.38 | 0.17 | 98 | 1012.0 |
| 20260504080719 | 59 | 222 | 2.0 | 4.0 | 0.02 | 0.38 | 0.17 | 98 | 1012.1 |
| 20260504080558 | 59 | 218 | 2.0 | 3.0 | 0.02 | 0.38 | 0.17 | 98 | 1012.1 |
| 20260504080421 | 59 | 259 | 0.0 | 3.0 | 0.02 | 0.38 | 0.17 | 98 | 1012.0 |
| 20260504080304 | 59 | 246 | 0.0 | 3.0 | 0.02 | 0.38 | 0.17 | 98 | 1012.1 |
| 20260504070325 | 57 | 227 | 1.0 | 2.0 | 0.02 | 0.37 | 0.16 | 98 | 1011.7 |
| 20260504070157 | 57 | 213 | 1.0 | 2.0 | 0.02 | 0.37 | 0.16 | 98 | 1011.8 |
| 20260504060107 | 56 | 210 | 0.0 | 6.0 | 0.02 | 0.36 | 0.14 | 98 | 1011.6 |
| 20260504050014 | 56 | 247 | 2.0 | 4.0 | 0.02 | 0.35 | 0.13 | 98 | 1011.2 |
| 20260504045943 | 56 | 247 | 2.0 | 4.0 | 0.02 | 0.35 | 0.13 | 98 | 1011.3 |
| 20260504045851 | 56 | 245 | 1.0 | 4.0 | 0.02 | 0.36 | 0.13 | 98 | 1011.4 |
| 20260504045717 | 56 | 245 | 2.0 | 4.0 | 0.02 | 0.36 | 0.13 | 98 | 1011.3 |
| 20260504045532 | 56 | 259 | 1.0 | 4.0 | 0.02 | 0.36 | 0.13 | 98 | 1011.2 |
| 20260504045150 | 56 | 209 | 0.0 | 2.0 | 0.02 | 0.36 | 0.13 | 98 | 1011.2 |
| 20260504044953 | 56 | 211 | 0.0 | 2.0 | 0.02 | 0.35 | 0.12 | 98 | 1011.1 |
| 20260504044703 | 56 | 211 | 0.0 | 2.0 | 0.02 | 0.35 | 0.12 | 98 | 1011.2 |
| 20260504044613 | 56 | 211 | 0.0 | 2.0 | 0.02 | 0.35 | 0.12 | 98 | 1011.2 |
| 20260504044339 | 56 | 215 | 0.0 | 2.0 | 0.02 | 0.35 | 0.12 | 98 | 1011.1 |
| 20260504044323 | 56 | 215 | 0.0 | 2.0 | 0.02 | 0.35 | 0.12 | 98 | 1011.2 |
| 20260504044221 | 56 | 197 | 0.0 | 1.0 | 0.02 | 0.35 | 0.12 | 98 | 1011.2 |
| 20260504044100 | 56 | 196 | 0.0 | 1.0 | 0.02 | 0.35 | 0.12 | 98 | 1011.1 |
| 20260504043740 | 56 | 175 | 0.0 | 0.0 | 0.02 | 0.35 | 0.12 | 98 | 1011.2 |
| 20260504043652 | 56 | 175 | 0.0 | 0.0 | 0.02 | 0.35 | 0.12 | 98 | 1011.2 |
| 20260504043552 | 56 | 175 | 0.0 | 0.0 | 0.02 | 0.35 | 0.12 | 98 | 1011.2 |
| 20260504043533 | 56 | 175 | 0.0 | 1.0 | 0.02 | 0.35 | 0.12 | 98 | 1011.2 |
| 20260504043156 | 56 | 175 | 0.0 | 1.0 | 0.02 | 0.35 | 0.12 | 98 | 1011.1 |
| 20260504043135 | 56 | 175 | 0.0 | 1.0 | 0.02 | 0.35 | 0.12 | 98 | 1011.2 |
| 20260504043057 | 56 | 175 | 0.0 | 1.0 | 0.02 | 0.35 | 0.12 | 98 | 1011.2 |
| 20260504043018 | 56 | 175 | 0.0 | 1.0 | 0.02 | 0.35 | 0.12 | 98 | 1011.2 |
| 20260504042920 | 56 | 175 | 0.0 | 1.0 | 0.02 | 0.35 | 0.12 | 98 | 1011.2 |
| 20260504042857 | 56 | 175 | 0.0 | 1.0 | 0.02 | 0.35 | 0.12 | 98 | 1011.2 |
| 20260504042726 | 56 | 175 | 0.0 | 1.0 | 0.02 | 0.35 | 0.11 | 98 | 1011.2 |
| 20260504042608 | 56 | 175 | 0.0 | 1.0 | 0.02 | 0.35 | 0.11 | 98 | 1011.2 |
| 20260504042523 | 56 | 190 | 0.0 | 1.0 | 0.02 | 0.35 | 0.11 | 98 | 1011.3 |
| 20260504042423 | 56 | 190 | 0.0 | 1.0 | 0.02 | 0.35 | 0.11 | 98 | 1011.3 |
| 20260504042332 | 56 | 190 | 0.0 | 1.0 | 0.02 | 0.35 | 0.11 | 98 | 1011.2 |
| 20260504042313 | 56 | 190 | 0.0 | 2.0 | 0.02 | 0.35 | 0.11 | 98 | 1011.3 |
| 20260504042229 | 56 | 190 | 0.0 | 2.0 | 0.02 | 0.35 | 0.11 | 98 | 1011.1 |
| 20260504042114 | 56 | 190 | 0.0 | 2.0 | 0.02 | 0.35 | 0.11 | 98 | 1011.2 |
| 20260504042023 | 56 | 190 | 0.0 | 2.0 | 0.02 | 0.35 | 0.11 | 98 | 1011.3 |
| 20260504041935 | 56 | 190 | 0.0 | 2.0 | 0.02 | 0.35 | 0.11 | 98 | 1011.2 |
| 20260504041842 | 57 | 190 | 0.0 | 2.0 | 0.02 | 0.35 | 0.11 | 98 | 1011.3 |
| 20260504041817 | 57 | 166 | 0.0 | 1.0 | 0.02 | 0.35 | 0.11 | 98 | 1011.2 |
| 20260504041723 | 57 | 162 | 0.0 | 1.0 | 0.02 | 0.35 | 0.11 | 98 | 1011.3 |
| 20260504041333 | 57 | 161 | 0.0 | 1.0 | 0.02 | 0.35 | 0.11 | 98 | 1011.4 |
| 20260504041303 | 57 | 161 | 0.0 | 1.0 | 0.02 | 0.35 | 0.11 | 98 | 1011.3 |
| 20260504041204 | 57 | 161 | 0.0 | 1.0 | 0.02 | 0.35 | 0.10 | 98 | 1011.3 |
| 20260504041110 | 57 | 161 | 0.0 | 1.0 | 0.02 | 0.35 | 0.10 | 98 | 1011.4 |
| 20260504041048 | 57 | 161 | 0.0 | 1.0 | 0.02 | 0.35 | 0.10 | 98 | 1011.3 |
| 20260504041004 | 57 | 161 | 0.0 | 1.0 | 0.02 | 0.35 | 0.10 | 98 | 1011.3 |
| 20260504040904 | 57 | 190 | 0.0 | 0.0 | 0.02 | 0.35 | 0.10 | 98 | 1011.5 |
| 20260504040847 | 57 | 190 | 0.0 | 0.0 | 0.02 | 0.35 | 0.10 | 98 | 1011.4 |
| 20260504040758 | 57 | 190 | 0.0 | 0.0 | 0.02 | 0.35 | 0.10 | 98 | 1011.5 |
| 20260504040721 | 57 | 190 | 0.0 | 0.0 | 0.02 | 0.35 | 0.10 | 98 | 1011.5 |
| 20260504040645 | 57 | 190 | 0.0 | 2.0 | 0.02 | 0.35 | 0.10 | 98 | 1011.5 |
| 20260504040627 | 57 | 190 | 0.0 | 2.0 | 0.02 | 0.35 | 0.10 | 98 | 1011.5 |
| 20260504040535 | 57 | 190 | 0.0 | 2.0 | 0.02 | 0.35 | 0.10 | 98 | 1011.5 |
| 20260504040439 | 57 | 190 | 0.0 | 2.0 | 0.02 | 0.35 | 0.10 | 98 | 1011.5 |
| 20260504040024 | 57 | 190 | 0.0 | 2.0 | 0.02 | 0.34 | 0.10 | 98 | 1011.4 |
| 20260504035918 | 57 | 223 | 0.0 | 2.0 | 0.02 | 0.34 | 0.09 | 98 | 1011.4 |
| 20260504035847 | 57 | 223 | 0.0 | 2.0 | 0.02 | 0.34 | 0.09 | 98 | 1011.4 |
| 20260504035745 | 57 | 223 | 0.0 | 2.0 | 0.02 | 0.34 | 0.09 | 98 | 1011.4 |
| 20260504035629 | 57 | 219 | 1.0 | 2.0 | 0.02 | 0.34 | 0.09 | 98 | 1011.4 |
| 20260504035305 | 57 | 228 | 1.0 | 2.0 | 0.02 | 0.35 | 0.09 | 98 | 1011.5 |
| 20260504035201 | 57 | 228 | 1.0 | 2.0 | 0.02 | 0.35 | 0.09 | 98 | 1011.5 |
| 20260504034812 | 57 | 247 | 1.0 | 2.0 | 0.02 | 0.35 | 0.09 | 98 | 1011.3 |
| 20260504034648 | 58 | 248 | 1.0 | 2.0 | 0.02 | 0.35 | 0.09 | 98 | 1011.5 |
| 20260504034514 | 58 | 241 | 0.0 | 2.0 | 0.02 | 0.35 | 0.09 | 98 | 1011.5 |
| 20260504034149 | 58 | 241 | 0.0 | 2.0 | 0.02 | 0.35 | 0.09 | 98 | 1011.4 |
| 20260504034037 | 58 | 195 | 0.0 | 2.0 | 0.02 | 0.35 | 0.09 | 98 | 1011.3 |
| 20260504033741 | 58 | 195 | 0.0 | 2.0 | 0.02 | 0.35 | 0.09 | 98 | 1011.5 |
| 20260504033650 | 58 | 195 | 0.0 | 2.0 | 0.02 | 0.34 | 0.09 | 98 | 1011.4 |
| 20260504033528 | 58 | 195 | 0.0 | 2.0 | 0.02 | 0.34 | 0.09 | 98 | 1011.6 |
| 20260504033458 | 58 | 195 | 0.0 | 2.0 | 0.02 | 0.34 | 0.09 | 98 | 1011.6 |
| 20260504033041 | 58 | 213 | 1.0 | 2.0 | 0.02 | 0.34 | 0.09 | 98 | 1011.8 |
| 20260504032947 | 58 | 213 | 1.0 | 2.0 | 0.02 | 0.34 | 0.09 | 98 | 1011.7 |
| 20260504032546 | 58 | 216 | 0.0 | 2.0 | 0.02 | 0.34 | 0.09 | 98 | 1011.8 |
| 20260504032437 | 58 | 221 | 0.0 | 2.0 | 0.02 | 0.34 | 0.09 | 98 | 1011.8 |
| 20260504032420 | 58 | 218 | 0.0 | 2.0 | 0.02 | 0.34 | 0.09 | 98 | 1011.8 |
| 20260504032307 | 58 | 216 | 1.0 | 3.0 | 0.02 | 0.34 | 0.09 | 98 | 1011.8 |
| 20260504031904 | 58 | 243 | 1.0 | 3.0 | 0.02 | 0.34 | 0.09 | 98 | 1011.9 |
| 20260504031831 | 58 | 243 | 1.0 | 3.0 | 0.02 | 0.34 | 0.09 | 98 | 1011.8 |
| 20260504031709 | 58 | 207 | 1.0 | 3.0 | 0.02 | 0.34 | 0.09 | 98 | 1011.9 |
| 20260504031532 | 58 | 242 | 2.0 | 3.0 | 0.02 | 0.34 | 0.09 | 98 | 1011.9 |
| 20260504031028 | 58 | 240 | 1.0 | 3.0 | 0.02 | 0.33 | 0.08 | 98 | 1011.9 |
| 20260504030937 | 58 | 246 | 1.0 | 3.0 | 0.02 | 0.33 | 0.08 | 98 | 1011.9 |
| 20260504030853 | 58 | 229 | 1.0 | 3.0 | 0.02 | 0.33 | 0.08 | 98 | 1011.9 |
| 20260504030741 | 58 | 221 | 1.0 | 3.0 | 0.02 | 0.34 | 0.08 | 98 | 1011.9 |
| 20260504030552 | 58 | 240 | 1.0 | 3.0 | 0.02 | 0.34 | 0.08 | 98 | 1011.9 |
| 20260504030444 | 58 | 243 | 1.0 | 3.0 | 0.02 | 0.34 | 0.08 | 98 | 1011.9 |
| 20260504030316 | 58 | 237 | 1.0 | 3.0 | 0.02 | 0.34 | 0.08 | 98 | 1011.8 |
| 20260504030215 | 58 | 279 | 1.0 | 2.0 | 0.02 | 0.34 | 0.08 | 98 | 1011.8 |
| 20260504025810 | 58 | 247 | 1.0 | 3.0 | 0.02 | 0.34 | 0.08 | 98 | 1011.8 |
| 20260504025437 | 58 | 217 | 0.0 | 3.0 | 0.02 | 0.34 | 0.08 | 97 | 1011.8 |
| 20260504025315 | 58 | 217 | 1.0 | 3.0 | 0.02 | 0.34 | 0.08 | 97 | 1012.0 |
| 20260504025148 | 58 | 217 | 2.0 | 3.0 | 0.02 | 0.34 | 0.08 | 97 | 1011.9 |
| 20260504024807 | 58 | 206 | 1.0 | 5.0 | 0.02 | 0.34 | 0.08 | 97 | 1011.9 |
| 20260504024640 | 58 | 190 | 0.0 | 5.0 | 0.02 | 0.34 | 0.08 | 97 | 1011.8 |
| 20260504024321 | 58 | 190 | 0.0 | 5.0 | 0.02 | 0.34 | 0.08 | 97 | 1012.0 |
| 20260504024156 | 58 | 190 | 1.0 | 5.0 | 0.01 | 0.33 | 0.07 | 98 | 1011.9 |
| 20260504024030 | 58 | 174 | 3.0 | 5.0 | 0.02 | 0.33 | 0.07 | 98 | 1011.8 |
| 20260504023949 | 58 | 184 | 4.0 | 5.0 | 0.02 | 0.33 | 0.07 | 98 | 1011.7 |
| 20260504023855 | 58 | 149 | 4.0 | 5.0 | 0.02 | 0.33 | 0.07 | 98 | 1011.8 |
| 20260504023711 | 58 | 124 | 1.0 | 5.0 | 0.02 | 0.33 | 0.07 | 98 | 1011.6 |
| 20260504023523 | 58 | 144 | 0.0 | 7.0 | 0.02 | 0.33 | 0.07 | 98 | 1011.7 |
| 20260504023357 | 58 | 193 | 1.0 | 7.0 | 0.02 | 0.33 | 0.07 | 97 | 1011.8 |
| 20260504023253 | 58 | 222 | 0.0 | 7.0 | 0.02 | 0.33 | 0.07 | 97 | 1011.7 |
| 20260504022906 | 58 | 308 | 0.0 | 7.0 | 0.02 | 0.33 | 0.07 | 97 | 1011.7 |
| 20260504022814 | 58 | 308 | 3.0 | 7.0 | 0.02 | 0.33 | 0.07 | 97 | 1011.8 |
| 20260504022635 | 58 | 270 | 3.0 | 5.0 | 0.02 | 0.33 | 0.07 | 97 | 1011.8 |
| 20260504022107 | 58 | 232 | 2.0 | 5.0 | 0.02 | 0.34 | 0.07 | 97 | 1011.9 |
| 20260504022012 | 58 | 226 | 1.0 | 7.0 | 0.02 | 0.34 | 0.07 | 98 | 1011.8 |
| 20260504021917 | 58 | 232 | 0.0 | 7.0 | 0.02 | 0.34 | 0.07 | 97 | 1011.7 |
| 20260504021746 | 58 | 189 | 0.0 | 7.0 | 0.02 | 0.34 | 0.07 | 97 | 1011.6 |
| 20260504021641 | 58 | 178 | 2.0 | 7.0 | 0.02 | 0.34 | 0.07 | 97 | 1011.4 |
| 20260504021517 | 58 | 180 | 2.0 | 7.0 | 0.01 | 0.33 | 0.07 | 97 | 1011.2 |
| 20260504020737 | 58 | 90 | 3.0 | 7.0 | 0.02 | 0.33 | 0.06 | 97 | 1011.0 |
| 20260504020600 | 58 | 98 | 3.0 | 6.0 | 0.02 | 0.33 | 0.06 | 98 | 1011.1 |
| 20260504020411 | 58 | 67 | 3.0 | 6.0 | 0.02 | 0.33 | 0.06 | 98 | 1011.0 |
| 20260504020013 | 58 | 63 | 2.0 | 6.0 | 0.02 | 0.33 | 0.06 | 97 | 1011.0 |
| 20260504015818 | 58 | 67 | 4.0 | 6.0 | 0.02 | 0.33 | 0.06 | 98 | 1010.9 |
| 20260504015724 | 58 | 63 | 3.0 | 6.0 | 0.02 | 0.33 | 0.06 | 98 | 1011.1 |
| 20260504015630 | 58 | 74 | 3.0 | 6.0 | 0.02 | 0.33 | 0.06 | 98 | 1011.0 |
| 20260504015441 | 58 | 61 | 1.0 | 6.0 | 0.02 | 0.33 | 0.06 | 98 | 1011.0 |
| 20260504015304 | 58 | 91 | 2.0 | 9.0 | 0.02 | 0.33 | 0.06 | 98 | 1011.1 |
| 20260504015127 | 58 | 60 | 2.0 | 9.0 | 0.02 | 0.33 | 0.06 | 97 | 1011.0 |
| 20260504014953 | 58 | 81 | 4.0 | 9.0 | 0.02 | 0.33 | 0.06 | 98 | 1010.9 |
| 20260504014559 | 58 | 69 | 5.0 | 9.0 | 0.02 | 0.33 | 0.06 | 98 | 1010.8 |
| 20260504014408 | 58 | 59 | 6.0 | 9.0 | 0.02 | 0.33 | 0.06 | 98 | 1010.8 |
| 20260504013615 | 58 | 71 | 3.0 | 9.0 | 0.02 | 0.33 | 0.06 | 98 | 1011.0 |
| 20260504013415 | 58 | 75 | 3.0 | 6.0 | 0.02 | 0.32 | 0.06 | 98 | 1011.0 |
| 20260504013320 | 58 | 57 | 3.0 | 6.0 | 0.02 | 0.32 | 0.06 | 98 | 1011.1 |
| 20260504012838 | 58 | 80 | 4.0 | 7.0 | 0.02 | 0.32 | 0.06 | 98 | 1011.0 |
| 20260504012642 | 58 | 67 | 4.0 | 8.0 | 0.02 | 0.33 | 0.06 | 98 | 1011.0 |
| 20260504012459 | 58 | 58 | 4.0 | 8.0 | 0.02 | 0.33 | 0.06 | 98 | 1011.1 |
| 20260504012003 | 58 | 49 | 4.0 | 8.0 | 0.02 | 0.33 | 0.06 | 98 | 1011.1 |
| 20260504011909 | 58 | 86 | 4.0 | 8.0 | 0.02 | 0.33 | 0.06 | 98 | 1011.1 |
| 20260504011716 | 58 | 40 | 3.0 | 8.0 | 0.02 | 0.33 | 0.06 | 98 | 1011.1 |
| 20260504011523 | 58 | 51 | 5.0 | 7.0 | 0.02 | 0.33 | 0.06 | 98 | 1011.1 |
| 20260504011345 | 58 | 44 | 3.0 | 7.0 | 0.02 | 0.33 | 0.06 | 98 | 1011.1 |
| 20260504010849 | 58 | 51 | 3.0 | 6.0 | 0.02 | 0.33 | 0.06 | 98 | 1011.1 |
| 20260504010755 | 58 | 67 | 3.0 | 6.0 | 0.02 | 0.33 | 0.06 | 98 | 1011.1 |
| 20260504010213 | 58 | 53 | 4.0 | 6.0 | 0.02 | 0.33 | 0.06 | 98 | 1011.1 |
| 20260504010043 | 58 | 57 | 4.0 | 6.0 | 0.02 | 0.33 | 0.06 | 98 | 1011.0 |
| 20260504005845 | 58 | 76 | 4.0 | 6.0 | 0.02 | 0.32 | 0.05 | 98 | 1011.1 |
| 20260504005749 | 58 | 66 | 4.0 | 6.0 | 0.02 | 0.32 | 0.05 | 98 | 1011.2 |
| 20260504005700 | 58 | 53 | 3.0 | 6.0 | 0.02 | 0.32 | 0.05 | 98 | 1011.2 |
| 20260504004922 | 58 | 80 | 3.0 | 6.0 | 0.02 | 0.32 | 0.05 | 98 | 1011.1 |
| 20260504004742 | 59 | 113 | 4.0 | 7.0 | 0.02 | 0.32 | 0.05 | 97 | 1011.2 |
| 20260504004547 | 58 | 44 | 2.0 | 7.0 | 0.02 | 0.32 | 0.05 | 98 | 1011.2 |
| 20260504004448 | 59 | 66 | 2.0 | 7.0 | 0.02 | 0.32 | 0.05 | 97 | 1011.2 |
| 20260504004354 | 59 | 62 | 2.0 | 7.0 | 0.02 | 0.32 | 0.05 | 98 | 1011.2 |
| 20260504004202 | 59 | 51 | 4.0 | 7.0 | 0.02 | 0.32 | 0.05 | 97 | 1011.2 |
| 20260504003810 | 58 | 42 | 2.0 | 7.0 | 0.02 | 0.32 | 0.05 | 98 | 1011.2 |
| 20260504003628 | 59 | 61 | 2.0 | 5.0 | 0.02 | 0.32 | 0.05 | 98 | 1011.4 |
| 20260504003139 | 59 | 55 | 2.0 | 5.0 | 0.02 | 0.32 | 0.05 | 97 | 1011.4 |
| 20260504002312 | 59 | 45 | 3.0 | 5.0 | 0.02 | 0.33 | 0.05 | 97 | 1011.4 |
| 20260504002136 | 59 | 55 | 3.0 | 4.0 | 0.02 | 0.32 | 0.04 | 97 | 1011.5 |
| 20260504001943 | 59 | 53 | 1.0 | 4.0 | 0.02 | 0.32 | 0.04 | 97 | 1011.4 |
| 20260504001847 | 59 | 18 | 1.0 | 4.0 | 0.02 | 0.32 | 0.04 | 97 | 1011.5 |
| 20260504001423 | 59 | 345 | 0.0 | 4.0 | 0.02 | 0.32 | 0.04 | 97 | 1011.5 |
| 20260504001311 | 59 | 345 | 1.0 | 4.0 | 0.02 | 0.32 | 0.04 | 97 | 1011.4 |
| 20260504000924 | 59 | 9 | 2.0 | 4.0 | 0.02 | 0.32 | 0.04 | 97 | 1011.3 |
| 20260504000802 | 59 | 9 | 0.0 | 4.0 | 0.02 | 0.32 | 0.04 | 97 | 1011.4 |
| 20260504000723 | 59 | 9 | 1.0 | 4.0 | 0.02 | 0.32 | 0.04 | 97 | 1011.4 |
| 20260504000654 | 59 | 9 | 2.0 | 4.0 | 0.02 | 0.32 | 0.04 | 97 | 1011.3 |
| 20260504000534 | 59 | 352 | 3.0 | 4.0 | 0.02 | 0.32 | 0.04 | 97 | 1011.5 |
| 20260504000347 | 59 | 0 | 2.0 | 4.0 | 0.02 | 0.32 | 0.04 | 97 | 1011.5 |
| 20260504000219 | 59 | 5 | 2.0 | 4.0 | 0.02 | 0.32 | 0.04 | 97 | 1011.5 |
| 20260504000058 | 59 | 5 | 2.0 | 4.0 | 0.02 | 0.32 | 0.04 | 97 | 1011.6 |
| 20260504000015 | 59 | 352 | 2.0 | 4.0 | 0.02 | 0.32 | 0.04 | 97 | 1011.5 |
| 20260503235925 | 59 | 348 | 2.0 | 4.0 | 0.02 | 0.32 | 0.04 | 97 | 1011.4 |
| 20260503235732 | 59 | 15 | 2.0 | 4.0 | 0.02 | 0.31 | 0.03 | 97 | 1011.5 |
| 20260503235559 | 59 | 352 | 1.0 | 5.0 | 0.02 | 0.31 | 0.03 | 97 | 1011.4 |
| 20260503235215 | 59 | 26 | 2.0 | 5.0 | 0.02 | 0.31 | 0.03 | 97 | 1011.4 |
| 20260503235041 | 59 | 11 | 2.0 | 5.0 | 0.02 | 0.31 | 0.03 | 97 | 1011.5 |
| 20260503234655 | 59 | 0 | 3.0 | 5.0 | 0.02 | 0.31 | 0.03 | 97 | 1011.5 |
| 20260503234516 | 59 | 0 | 3.0 | 5.0 | 0.02 | 0.31 | 0.03 | 97 | 1011.5 |
| 20260503234347 | 59 | 5 | 1.0 | 4.0 | 0.02 | 0.31 | 0.03 | 97 | 1011.5 |
| 20260503234012 | 59 | 5 | 2.0 | 4.0 | 0.02 | 0.31 | 0.03 | 97 | 1011.5 |
| 20260503233607 | 59 | 5 | 2.0 | 4.0 | 0.02 | 0.32 | 0.03 | 97 | 1011.6 |
| 20260503233527 | 59 | 5 | 2.0 | 4.0 | 0.02 | 0.32 | 0.03 | 97 | 1011.6 |
| 20260503233411 | 59 | 5 | 2.0 | 4.0 | 0.02 | 0.32 | 0.03 | 97 | 1011.6 |
| 20260503233305 | 59 | 5 | 2.0 | 4.0 | 0.02 | 0.32 | 0.03 | 97 | 1011.7 |
| 20260503232812 | 59 | 0 | 2.0 | 4.0 | 0.02 | 0.31 | 0.02 | 97 | 1011.7 |
| 20260503232725 | 59 | 0 | 2.0 | 4.0 | 0.02 | 0.31 | 0.02 | 97 | 1011.7 |
| 20260503232306 | 59 | 352 | 2.0 | 4.0 | 0.02 | 0.31 | 0.02 | 97 | 1011.7 |
| 20260503232158 | 59 | 352 | 3.0 | 4.0 | 0.02 | 0.31 | 0.02 | 97 | 1011.7 |
| 20260503232152 | 59 | 352 | 3.0 | 4.0 | 0.02 | 0.31 | 0.02 | 97 | 1011.7 |
| 20260503232028 | 59 | 9 | 2.0 | 4.0 | 0.02 | 0.31 | 0.02 | 96 | 1011.7 |
| 20260503231845 | 59 | 5 | 1.0 | 5.0 | 0.02 | 0.31 | 0.02 | 96 | 1011.7 |
| 20260503231522 | 59 | 5 | 2.0 | 5.0 | 0.02 | 0.31 | 0.02 | 96 | 1011.7 |
| 20260503231333 | 59 | 0 | 2.0 | 5.0 | 0.02 | 0.31 | 0.02 | 96 | 1011.8 |
| 20260503231233 | 59 | 0 | 2.0 | 5.0 | 0.02 | 0.31 | 0.02 | 96 | 1011.8 |
| 20260503231214 | 59 | 0 | 2.0 | 5.0 | 0.02 | 0.31 | 0.02 | 96 | 1011.8 |
| 20260503231040 | 59 | 0 | 3.0 | 5.0 | 0.02 | 0.31 | 0.02 | 96 | 1011.7 |
| 20260503230821 | 59 | 350 | 2.0 | 5.0 | 0.02 | 0.31 | 0.02 | 96 | 1011.7 |
| 20260503230708 | 59 | 350 | 2.0 | 5.0 | 0.02 | 0.31 | 0.02 | 96 | 1011.7 |
| 20260503230218 | 59 | 351 | 2.0 | 3.0 | 0.02 | 0.31 | 0.02 | 96 | 1011.7 |
| 20260503225805 | 59 | 45 | 1.0 | 2.0 | 0.02 | 0.31 | 0.02 | 96 | 1011.8 |
| 20260503225610 | 59 | 45 | 0.0 | 1.0 | 0.02 | 0.31 | 0.02 | 96 | 1011.8 |
| 20260503225502 | 59 | 45 | 0.0 | 1.0 | 0.02 | 0.31 | 0.02 | 96 | 1012.0 |
| 20260503225114 | 59 | 45 | 0.0 | 1.0 | 0.02 | 0.31 | 0.02 | 96 | 1011.9 |
| 20260503225047 | 59 | 45 | 0.0 | 1.0 | 0.02 | 0.31 | 0.02 | 96 | 1011.9 |
| 20260503224957 | 59 | 45 | 0.0 | 1.0 | 0.02 | 0.31 | 0.02 | 96 | 1011.9 |
| 20260503224824 | 59 | 45 | 0.0 | 1.0 | 0.02 | 0.31 | 0.02 | 95 | 1011.9 |
| 20260503224722 | 59 | 45 | 0.0 | 1.0 | 0.02 | 0.31 | 0.01 | 95 | 1012.0 |
| 20260503224629 | 59 | 45 | 0.0 | 1.0 | 0.02 | 0.31 | 0.01 | 95 | 1012.0 |
| 20260503224547 | 59 | 45 | 0.0 | 1.0 | 0.02 | 0.31 | 0.01 | 95 | 1011.9 |
| 20260503224522 | 59 | 45 | 0.0 | 1.0 | 0.02 | 0.31 | 0.01 | 95 | 1011.9 |
| 20260503224424 | 59 | 45 | 0.0 | 2.0 | 0.02 | 0.31 | 0.01 | 95 | 1011.9 |
| 20260503224308 | 60 | 45 | 0.0 | 2.0 | 0.02 | 0.31 | 0.01 | 95 | 1011.9 |
| 20260503224218 | 60 | 45 | 0.0 | 2.0 | 0.02 | 0.31 | 0.01 | 95 | 1011.9 |
| 20260503224111 | 60 | 45 | 1.0 | 2.0 | 0.02 | 0.31 | 0.01 | 95 | 1011.8 |
| 20260503224025 | 60 | 45 | 1.0 | 2.0 | 0.02 | 0.31 | 0.01 | 95 | 1011.8 |
| 20260503223943 | 60 | 45 | 1.0 | 2.0 | 0.02 | 0.31 | 0.01 | 95 | 1011.8 |
| 20260503223812 | 60 | 45 | 1.0 | 2.0 | 0.02 | 0.31 | 0.01 | 95 | 1011.8 |
| 20260503223700 | 60 | 68 | 0.0 | 2.0 | 0.02 | 0.31 | 0.01 | 95 | 1011.8 |
| 20260503223403 | 60 | 68 | 0.0 | 3.0 | 0.02 | 0.30 | 0.01 | 95 | 1011.8 |
| 20260503223303 | 60 | 68 | 0.0 | 4.0 | 0.02 | 0.30 | 0.00 | 95 | 1011.9 |
| 20260503223226 | 60 | 68 | 0.0 | 4.0 | 0.02 | 0.30 | 0.00 | 95 | 1011.8 |
| 20260503223146 | 60 | 68 | 1.0 | 4.0 | 0.02 | 0.30 | 0.00 | 95 | 1011.8 |
| 20260503223018 | 60 | 68 | 2.0 | 4.0 | 0.02 | 0.30 | 0.00 | 95 | 1011.8 |
| 20260503222847 | 60 | 58 | 2.0 | 4.0 | 0.02 | 0.30 | 0.00 | 95 | 1011.8 |
| 20260503222737 | 60 | 98 | 1.0 | 4.0 | 0.02 | 0.30 | 0.00 | 95 | 1011.8 |
| 20260503222552 | 60 | 95 | 1.0 | 3.0 | 0.02 | 0.30 | 0.00 | 95 | 1011.7 |
| 20260503222504 | 60 | 106 | 2.0 | 3.0 | 0.02 | 0.30 | 0.00 | 95 | 1011.8 |
| 20260503221709 | 60 | 89 | 2.0 | 4.0 | 0.02 | 0.30 | 0.30 | 95 | 1011.8 |
| 20260503221540 | 60 | 61 | 2.0 | 6.0 | 0.02 | 0.31 | 0.30 | 94 | 1011.8 |
| 20260503221354 | 60 | 106 | 2.0 | 6.0 | 0.02 | 0.31 | 0.30 | 94 | 1011.8 |
| 20260503221306 | 60 | 73 | 1.0 | 6.0 | 0.02 | 0.30 | 0.30 | 94 | 1011.9 |
| 20260503221205 | 60 | 115 | 2.0 | 6.0 | 0.02 | 0.30 | 0.29 | 94 | 1011.9 |
| 20260503221021 | 60 | 119 | 2.0 | 6.0 | 0.02 | 0.30 | 0.29 | 94 | 1011.8 |
| 20260503220855 | 60 | 117 | 3.0 | 6.0 | 0.02 | 0.30 | 0.29 | 94 | 1011.8 |
| 20260503220837 | 60 | 123 | 3.0 | 6.0 | 0.02 | 0.30 | 0.29 | 94 | 1011.8 |
| 20260503220655 | 60 | 109 | 2.0 | 4.0 | 0.02 | 0.30 | 0.29 | 94 | 1011.9 |
| 20260503220508 | 60 | 102 | 3.0 | 4.0 | 0.02 | 0.30 | 0.29 | 94 | 1011.9 |
| 20260503220424 | 60 | 86 | 3.0 | 4.0 | 0.02 | 0.30 | 0.29 | 94 | 1011.8 |
| 20260503220321 | 60 | 88 | 2.0 | 4.0 | 0.02 | 0.30 | 0.29 | 94 | 1011.9 |
| 20260503220127 | 60 | 97 | 2.0 | 6.0 | 0.02 | 0.30 | 0.29 | 94 | 1012.0 |
| 20260503220001 | 60 | 121 | 2.0 | 6.0 | 0.02 | 0.30 | 0.29 | 94 | 1012.0 |
| 20260503215945 | 60 | 128 | 2.0 | 6.0 | 0.02 | 0.30 | 0.29 | 94 | 1011.9 |
| 20260503215812 | 60 | 148 | 3.0 | 6.0 | 0.02 | 0.30 | 0.29 | 94 | 1012.0 |
| 20260503215614 | 60 | 143 | 3.0 | 6.0 | 0.02 | 0.30 | 0.29 | 94 | 1012.0 |
| 20260503215217 | 60 | 119 | 3.0 | 6.0 | 0.02 | 0.29 | 0.29 | 94 | 1012.0 |
| 20260503215014 | 60 | 130 | 2.0 | 4.0 | 0.02 | 0.29 | 0.28 | 94 | 1012.0 |
| 20260503214846 | 60 | 130 | 2.0 | 4.0 | 0.02 | 0.29 | 0.28 | 94 | 1012.0 |
| 20260503214821 | 60 | 121 | 2.0 | 4.0 | 0.02 | 0.29 | 0.28 | 94 | 1012.0 |
| 20260503214246 | 60 | 132 | 2.0 | 4.0 | 0.02 | 0.29 | 0.28 | 94 | 1012.0 |
| 20260503213851 | 60 | 112 | 1.0 | 4.0 | 0.02 | 0.29 | 0.28 | 94 | 1012.1 |
| 20260503213703 | 60 | 107 | 2.0 | 5.0 | 0.02 | 0.29 | 0.28 | 94 | 1012.1 |
| 20260503213615 | 60 | 103 | 2.0 | 5.0 | 0.02 | 0.29 | 0.28 | 94 | 1012.2 |
| 20260503213548 | 60 | 117 | 2.0 | 5.0 | 0.02 | 0.29 | 0.28 | 94 | 1012.2 |
| 20260503213411 | 60 | 115 | 2.0 | 5.0 | 0.02 | 0.29 | 0.28 | 94 | 1012.2 |
| 20260503213229 | 60 | 144 | 2.0 | 6.0 | 0.02 | 0.30 | 0.28 | 94 | 1012.1 |
| 20260503213151 | 60 | 132 | 2.0 | 6.0 | 0.02 | 0.29 | 0.28 | 94 | 1012.2 |
| 20260503213036 | 60 | 101 | 2.0 | 6.0 | 0.02 | 0.29 | 0.28 | 94 | 1012.1 |
| 20260503212841 | 60 | 117 | 2.0 | 6.0 | 0.02 | 0.29 | 0.28 | 94 | 1012.1 |
| 20260503212728 | 60 | 161 | 3.0 | 6.0 | 0.02 | 0.29 | 0.28 | 94 | 1012.1 |
| 20260503212651 | 60 | 99 | 3.0 | 6.0 | 0.02 | 0.29 | 0.28 | 94 | 1012.0 |
| 20260503212513 | 60 | 101 | 2.0 | 4.0 | 0.02 | 0.29 | 0.28 | 94 | 1012.1 |
| 20260503212311 | 60 | 80 | 3.0 | 5.0 | 0.02 | 0.29 | 0.28 | 94 | 1012.1 |
| 20260503212240 | 60 | 101 | 3.0 | 5.0 | 0.02 | 0.29 | 0.28 | 93 | 1012.1 |
| 20260503212128 | 60 | 132 | 3.0 | 5.0 | 0.02 | 0.29 | 0.28 | 94 | 1012.2 |
| 20260503211931 | 61 | 142 | 2.0 | 5.0 | 0.02 | 0.29 | 0.28 | 94 | 1012.2 |
| 20260503211750 | 61 | 117 | 3.0 | 5.0 | 0.02 | 0.29 | 0.28 | 94 | 1012.1 |
| 20260503211607 | 61 | 117 | 2.0 | 5.0 | 0.02 | 0.29 | 0.28 | 94 | 1012.1 |
| 20260503211423 | 61 | 134 | 3.0 | 5.0 | 0.02 | 0.29 | 0.28 | 93 | 1012.2 |
| 20260503211351 | 61 | 142 | 3.0 | 5.0 | 0.02 | 0.29 | 0.28 | 94 | 1012.1 |
| 20260503211227 | 61 | 141 | 3.0 | 5.0 | 0.02 | 0.29 | 0.28 | 93 | 1012.1 |
| 20260503211032 | 61 | 130 | 3.0 | 5.0 | 0.02 | 0.29 | 0.28 | 93 | 1012.1 |
| 20260503210914 | 61 | 123 | 2.0 | 5.0 | 0.02 | 0.28 | 0.28 | 93 | 1012.1 |
| 20260503210842 | 61 | 134 | 2.0 | 5.0 | 0.02 | 0.28 | 0.28 | 93 | 1012.1 |
| 20260503210655 | 61 | 130 | 3.0 | 5.0 | 0.02 | 0.28 | 0.27 | 93 | 1012.1 |
| 20260503210240 | 61 | 132 | 2.0 | 5.0 | 0.02 | 0.28 | 0.27 | 93 | 1012.0 |
| 20260503210117 | 61 | 132 | 2.0 | 4.0 | 0.02 | 0.28 | 0.27 | 93 | 1012.0 |
| 20260503205348 | 61 | 111 | 2.0 | 6.0 | 0.02 | 0.28 | 0.27 | 93 | 1011.8 |
| 20260503205213 | 61 | 76 | 2.0 | 6.0 | 0.02 | 0.28 | 0.27 | 93 | 1011.9 |
| 20260503205035 | 61 | 94 | 3.0 | 6.0 | 0.02 | 0.28 | 0.27 | 93 | 1011.7 |
| 20260503203848 | 62 | 105 | 3.0 | 6.0 | 0.02 | 0.28 | 0.27 | 93 | 1011.7 |
| 20260503203711 | 62 | 86 | 2.0 | 6.0 | 0.02 | 0.28 | 0.27 | 93 | 1011.6 |
| 20260503203517 | 62 | 80 | 3.0 | 6.0 | 0.02 | 0.28 | 0.27 | 93 | 1011.6 |
| 20260503203124 | 62 | 103 | 3.0 | 8.0 | 0.02 | 0.28 | 0.26 | 93 | 1011.7 |
| 20260503202931 | 62 | 105 | 4.0 | 8.0 | 0.02 | 0.28 | 0.26 | 93 | 1011.7 |
| 20260503202808 | 62 | 80 | 3.0 | 8.0 | 0.02 | 0.28 | 0.26 | 93 | 1011.7 |
| 20260503202736 | 62 | 93 | 3.0 | 8.0 | 0.02 | 0.28 | 0.26 | 93 | 1011.7 |
| 20260503202200 | 62 | 137 | 4.0 | 8.0 | 0.02 | 0.28 | 0.26 | 93 | 1011.6 |
| 20260503202125 | 62 | 65 | 4.0 | 8.0 | 0.02 | 0.28 | 0.26 | 93 | 1011.8 |
| 20260503202013 | 62 | 117 | 4.0 | 8.0 | 0.02 | 0.28 | 0.26 | 93 | 1011.7 |
| 20260503201818 | 62 | 119 | 4.0 | 9.0 | 0.02 | 0.28 | 0.26 | 93 | 1011.7 |
| 20260503201425 | 62 | 121 | 5.0 | 10.0 | 0.02 | 0.28 | 0.26 | 93 | 1011.6 |
| 20260503201229 | 62 | 86 | 4.0 | 10.0 | 0.02 | 0.28 | 0.26 | 94 | 1011.6 |
| 20260503201048 | 62 | 150 | 4.0 | 10.0 | 0.02 | 0.28 | 0.26 | 94 | 1011.5 |
| 20260503201019 | 62 | 67 | 4.0 | 10.0 | 0.02 | 0.28 | 0.26 | 94 | 1011.6 |
| 20260503200847 | 62 | 105 | 3.0 | 10.0 | 0.02 | 0.28 | 0.26 | 94 | 1011.6 |
| 20260503200649 | 62 | 108 | 5.0 | 10.0 | 0.02 | 0.28 | 0.26 | 94 | 1011.5 |
| 20260503200538 | 62 | 127 | 4.0 | 10.0 | 0.02 | 0.28 | 0.26 | 94 | 1011.5 |
| 20260503200058 | 62 | 124 | 3.0 | 7.0 | 0.02 | 0.28 | 0.25 | 94 | 1011.4 |
| 20260503195926 | 62 | 114 | 4.0 | 7.0 | 0.02 | 0.28 | 0.25 | 94 | 1011.4 |
| 20260503195857 | 62 | 111 | 4.0 | 7.0 | 0.02 | 0.28 | 0.25 | 94 | 1011.4 |
| 20260503195740 | 62 | 107 | 2.0 | 7.0 | 0.02 | 0.28 | 0.25 | 94 | 1011.4 |
| 20260503195548 | 62 | 105 | 4.0 | 7.0 | 0.02 | 0.28 | 0.25 | 94 | 1011.4 |
| 20260503195442 | 62 | 115 | 4.0 | 7.0 | 0.02 | 0.28 | 0.25 | 94 | 1011.4 |
| 20260503195403 | 62 | 109 | 3.0 | 7.0 | 0.02 | 0.28 | 0.25 | 94 | 1011.4 |
| 20260503195209 | 62 | 88 | 2.0 | 7.0 | 0.02 | 0.28 | 0.25 | 94 | 1011.5 |
| 20260503195034 | 62 | 89 | 3.0 | 7.0 | 0.02 | 0.28 | 0.25 | 94 | 1011.4 |
| 20260503195012 | 62 | 134 | 3.0 | 7.0 | 0.02 | 0.28 | 0.25 | 94 | 1011.4 |
| 20260503194448 | 63 | 92 | 2.0 | 7.0 | 0.02 | 0.28 | 0.25 | 94 | 1011.4 |
| 20260503194338 | 63 | 101 | 3.0 | 7.0 | 0.02 | 0.28 | 0.25 | 94 | 1011.4 |
| 20260503194301 | 63 | 84 | 4.0 | 7.0 | 0.02 | 0.28 | 0.25 | 94 | 1011.3 |
| 20260503194101 | 63 | 86 | 2.0 | 5.0 | 0.02 | 0.28 | 0.25 | 94 | 1011.3 |
| 20260503193932 | 63 | 120 | 2.0 | 4.0 | 0.02 | 0.28 | 0.25 | 94 | 1011.4 |
| 20260503193915 | 63 | 107 | 2.0 | 4.0 | 0.02 | 0.28 | 0.25 | 94 | 1011.4 |
| 20260503193758 | 63 | 113 | 2.0 | 4.0 | 0.02 | 0.28 | 0.25 | 94 | 1011.2 |
| 20260503193555 | 63 | 109 | 2.0 | 4.0 | 0.02 | 0.28 | 0.25 | 94 | 1011.3 |
| 20260503193108 | 63 | 110 | 2.0 | 4.0 | 0.01 | 0.28 | 0.25 | 94 | 1011.3 |
| 20260503192916 | 63 | 95 | 2.0 | 4.0 | 0.02 | 0.28 | 0.24 | 94 | 1011.2 |
| 20260503192525 | 63 | 88 | 1.0 | 2.0 | 0.02 | 0.28 | 0.24 | 94 | 1011.2 |
| 20260503192326 | 63 | 53 | 1.0 | 2.0 | 0.02 | 0.28 | 0.24 | 94 | 1011.1 |
| 20260503192213 | 63 | 53 | 0.0 | 2.0 | 0.02 | 0.28 | 0.24 | 94 | 1011.1 |
| 20260503192136 | 63 | 53 | 0.0 | 0.0 | 0.02 | 0.28 | 0.24 | 94 | 1011.1 |
| 20260503191653 | 63 | 53 | 0.0 | 0.0 | 0.02 | 0.28 | 0.24 | 94 | 1010.9 |
| 20260503191545 | 63 | 53 | 0.0 | 0.0 | 0.02 | 0.28 | 0.24 | 93 | 1011.0 |
| 20260503191356 | 63 | 53 | 0.0 | 0.0 | 0.02 | 0.28 | 0.24 | 93 | 1010.9 |
| 20260503191245 | 63 | 53 | 0.0 | 0.0 | 0.02 | 0.28 | 0.24 | 93 | 1011.0 |
| 20260503190538 | 63 | 53 | 0.0 | 2.0 | 0.02 | 0.28 | 0.24 | 93 | 1010.9 |
| 20260503190438 | 63 | 53 | 0.0 | 2.0 | 0.02 | 0.28 | 0.24 | 93 | 1010.9 |
| 20260503190252 | 63 | 53 | 0.0 | 3.0 | 0.02 | 0.28 | 0.24 | 93 | 1010.9 |
| 20260503190125 | 63 | 53 | 1.0 | 3.0 | 0.02 | 0.28 | 0.24 | 93 | 1010.9 |
| 20260503190047 | 63 | 53 | 1.0 | 4.0 | 0.02 | 0.28 | 0.24 | 92 | 1010.9 |
| 20260503190002 | 63 | 53 | 1.0 | 4.0 | 0.02 | 0.28 | 0.24 | 93 | 1010.9 |
| 20260503185346 | 63 | 58 | 2.0 | 4.0 | 0.02 | 0.27 | 0.24 | 92 | 1010.8 |
| 20260503185130 | 63 | 46 | 2.0 | 4.0 | 0.02 | 0.27 | 0.24 | 92 | 1010.9 |
| 20260503184926 | 63 | 44 | 2.0 | 4.0 | 0.02 | 0.27 | 0.24 | 92 | 1010.8 |
| 20260503184839 | 63 | 63 | 2.0 | 4.0 | 0.02 | 0.27 | 0.24 | 92 | 1010.8 |
| 20260503184744 | 63 | 312 | 1.0 | 3.0 | 0.02 | 0.27 | 0.24 | 92 | 1010.8 |
| 20260503184441 | 63 | 148 | 0.0 | 0.0 | 0.02 | 0.27 | 0.24 | 91 | 1010.8 |
| 20260503184425 | 63 | 146 | 3.0 | 6.0 | 0.02 | 0.24 | 0.18 | 94 | 1011.2 |
| 20260503184309 | 63 | 148 | 0.0 | 0.0 | 0.02 | 0.27 | 0.24 | 91 | 1010.8 |